QPF
0.00 0.00 0.00 0.00 0.00 0.00 0.00 0.00 0.00 0.00 0.00 0.00 0.00 0.00 0.00 0.00 0.00 0.00 0.00 0.00 0.00 0.00 0.00 0.00 0.00 0.01 0.01 0.01 0.01 0.01 0.02 0.02 0.06 0.08 0.07 0.08 0.07 0.06 0.04 0.02 0.04 0.05 0.04 0.03
0.00 0.00 0.00 0.00 0.00 0.00 0.00 0.00 0.00 0.00 0.00 0.00 0.00 0.00 0.00 0.00 0.00 0.00 0.00 0.00 0.00 0.01 0.03 0.02 0.02 0.02 0.02 0.02 0.02 0.01 0.01 0.01 0.08 0.11 0.09 0.08 0.08 0.06 0.05 0.04 0.05 0.06 0.06 0.05
0.00 0.00 0.00 0.00 0.00 0.00 0.00 0.00 0.00 0.00 0.00 0.00 0.00 0.00 0.00 0.00 0.00 0.00 0.00 0.00 0.01 0.01 0.02 0.04 0.05 0.04 0.03 0.03 0.02 0.01 0.01 0.02 0.08 0.08 0.08 0.07 0.07 0.05 0.05 0.06 0.06 0.06 0.06 0.06
0.00 0.00 0.00 0.00 0.00 0.00 0.00 0.00 0.00 0.00 0.00 0.00 0.00 0.00 0.00 0.00 0.00 0.01 0.00 0.01 0.01 0.02 0.03 0.03 0.03 0.02 0.02 0.02 0.03 0.02 0.01 0.01 0.03 0.03 0.05 0.06 0.05 0.04 0.05 0.06 0.07 0.07 0.07 0.06
0.00 0.00 0.00 0.00 0.00 0.00 0.00 0.00 0.00 0.00 0.00 0.00 0.00 0.00 0.00 0.00 0.01 0.00 0.00 0.01 0.01 0.02 0.02 0.02 0.01 0.01 0.01 0.02 0.04 0.04 0.02 0.01 0.01 0.04 0.08 0.07 0.05 0.04 0.04 0.06 0.07 0.07 0.07 0.06
0.00 0.00 0.00 0.00 0.00 0.00 0.00 0.00 0.00 0.00 0.00 0.00 0.00 0.01 0.01 0.00 0.01 0.00 0.01 0.01 0.01 0.02 0.01 0.01 0.01 0.00 0.01 0.02 0.04 0.07 0.04 0.02 0.02 0.04 0.07 0.04 0.03 0.03 0.04 0.06 0.08 0.07 0.06 0.05
0.00 0.00 0.00 0.00 0.00 0.00 0.00 0.00 0.00 0.00 0.00 0.00 0.00 0.00 0.01 0.00 0.00 0.01 0.01 0.01 0.01 0.01 0.01 0.01 0.01 0.01 0.01 0.02 0.04 0.07 0.05 0.02 0.03 0.03 0.03 0.02 0.02 0.04 0.06 0.07 0.08 0.08 0.06 0.05
0.00 0.00 0.00 0.00 0.00 0.00 0.00 0.00 0.00 0.00 0.00 0.00 0.00 0.00 0.00 0.00 0.01 0.01 0.01 0.01 0.01 0.01 0.01 0.01 0.01 0.02 0.02 0.03 0.03 0.03 0.04 0.04 0.06 0.05 0.03 0.03 0.03 0.04 0.06 0.07 0.06 0.05 0.05 0.05
0.00 0.00 0.00 0.00 0.00 0.00 0.00 0.00 0.00 0.00 0.00 0.00 0.00 0.00 0.00 0.00 0.00 0.01 0.01 0.01 0.01 0.01 0.01 0.02 0.02 0.02 0.03 0.03 0.04 0.04 0.05 0.08 0.09 0.08 0.07 0.06 0.05 0.05 0.05 0.05 0.04 0.03 0.03 0.03
0.00 0.00 0.00 0.00 0.00 0.00 0.00 0.00 0.00 0.00 0.00 0.00 0.00 0.00 0.00 0.00 0.00 0.00 0.00 0.01 0.02 0.01 0.01 0.02 0.02 0.03 0.04 0.04 0.06 0.06 0.08 0.12 0.13 0.09 0.08 0.06 0.05 0.06 0.06 0.04 0.03 0.02 0.02 0.02
0.00 0.00 0.00 0.00 0.00 0.00 0.00 0.00 0.00 0.00 0.00 0.00 0.00 0.00 0.00 0.00 0.00 0.00 0.01 0.01 0.01 0.01 0.01 0.01 0.02 0.03 0.04 0.04 0.03 0.03 0.06 0.10 0.09 0.07 0.06 0.05 0.05 0.06 0.06 0.04 0.03 0.03 0.03 0.02
0.00 0.00 0.00 0.00 0.00 0.00 0.00 0.00 0.00 0.00 0.00 0.00 0.00 0.00 0.00 0.00 0.00 0.00 0.01 0.01 0.01 0.02 0.01 0.01 0.01 0.02 0.02 0.02 0.02 0.01 0.03 0.07 0.11 0.09 0.07 0.06 0.05 0.04 0.04 0.03 0.03 0.04 0.05 0.06
0.00 0.00 0.00 0.00 0.00 0.00 0.00 0.00 0.00 0.00 0.00 0.00 0.00 0.00 0.00 0.00 0.00 0.00 0.00 0.01 0.01 0.01 0.01 0.01 0.01 0.02 0.02 0.02 0.01 0.01 0.03 0.08 0.16 0.21 0.12 0.08 0.07 0.04 0.03 0.03 0.04 0.05 0.06 0.06
0.00 0.00 0.00 0.00 0.00 0.00 0.00 0.00 0.00 0.00 0.00 0.00 0.00 0.00 0.00 0.00 0.00 0.00 0.00 0.01 0.00 0.00 0.00 0.01 0.01 0.01 0.01 0.01 0.01 0.01 0.02 0.07 0.12 0.17 0.10 0.08 0.06 0.04 0.04 0.04 0.06 0.08 0.07 0.06
0.00 0.00 0.00 0.00 0.00 0.00 0.00 0.00 0.00 0.00 0.00 0.00 0.00 0.00 0.00 0.00 0.00 0.00 0.01 0.01 0.01 0.01 0.02 0.02 0.02 0.02 0.01 0.01 0.01 0.01 0.02 0.04 0.06 0.08 0.09 0.10 0.09 0.08 0.08 0.06 0.05 0.06 0.06 0.05
0.00 0.00 0.00 0.00 0.00 0.00 0.00 0.00 0.00 0.00 0.00 0.01 0.01 0.01 0.00 0.00 0.01 0.01 0.02 0.02 0.02 0.02 0.02 0.02 0.02 0.02 0.02 0.01 0.01 0.03 0.03 0.05 0.06 0.07 0.09 0.08 0.08 0.08 0.09 0.10 0.08 0.06 0.05 0.06
0.00 0.00 0.00 0.00 0.00 0.00 0.00 0.00 0.00 0.00 0.00 0.00 0.00 0.01 0.01 0.01 0.01 0.02 0.03 0.03 0.03 0.03 0.02 0.02 0.02 0.02 0.02 0.02 0.01 0.02 0.04 0.05 0.05 0.05 0.06 0.08 0.09 0.09 0.07 0.08 0.09 0.08 0.07 0.07
0.00 0.00 0.00 0.00 0.00 0.00 0.01 0.01 0.02 0.01 0.01 0.01 0.01 0.01 0.01 0.01 0.02 0.03 0.03 0.03 0.04 0.04 0.04 0.03 0.03 0.02 0.02 0.02 0.02 0.03 0.04 0.05 0.06 0.05 0.06 0.06 0.06 0.05 0.04 0.04 0.05 0.07 0.08 0.08
0.00 0.00 0.00 0.00 0.00 0.01 0.01 0.02 0.02 0.01 0.02 0.01 0.01 0.01 0.02 0.02 0.03 0.03 0.03 0.03 0.03 0.03 0.03 0.03 0.03 0.03 0.03 0.03 0.04 0.06 0.08 0.09 0.11 0.08 0.06 0.06 0.06 0.06 0.06 0.05 0.06 0.09 0.10 0.08
0.00 0.00 0.00 0.00 0.00 0.01 0.01 0.01 0.01 0.01 0.02 0.02 0.02 0.02 0.03 0.04 0.05 0.04 0.05 0.06 0.03 0.03 0.04 0.04 0.05 0.05 0.05 0.06 0.07 0.07 0.08 0.12 0.14 0.10 0.08 0.07 0.06 0.06 0.06 0.06 0.08 0.10 0.10 0.08
0.01 0.00 0.00 0.01 0.01 0.01 0.01 0.01 0.01 0.01 0.02 0.02 0.02 0.03 0.04 0.04 0.06 0.04 0.06 0.08 0.05 0.03 0.04 0.05 0.06 0.07 0.06 0.05 0.05 0.07 0.08 0.08 0.08 0.07 0.06 0.05 0.04 0.04 0.06 0.08 0.08 0.08 0.09 0.09
0.02 0.01 0.01 0.01 0.01 0.01 0.01 0.01 0.02 0.01 0.02 0.03 0.03 0.03 0.03 0.04 0.04 0.04 0.03 0.04 0.05 0.05 0.05 0.06 0.06 0.07 0.06 0.06 0.05 0.04 0.05 0.05 0.04 0.04 0.03 0.04 0.04 0.04 0.04 0.05 0.06 0.06 0.07 0.07
0.02 0.02 0.02 0.02 0.02 0.02 0.02 0.01 0.01 0.01 0.02 0.03 0.04 0.03 0.02 0.03 0.02 0.02 0.03 0.04 0.04 0.04 0.05 0.07 0.07 0.07 0.08 0.07 0.04 0.03 0.02 0.03 0.04 0.03 0.03 0.03 0.03 0.02 0.02 0.03 0.03 0.03 0.04 0.06
0.01 0.02 0.02 0.03 0.04 0.03 0.03 0.02 0.01 0.01 0.02 0.03 0.03 0.03 0.03 0.02 0.02 0.03 0.04 0.04 0.05 0.05 0.05 0.05 0.07 0.07 0.05 0.04 0.03 0.02 0.02 0.03 0.04 0.05 0.04 0.04 0.03 0.03 0.04 0.04 0.05 0.04 0.04 0.04
0.01 0.02 0.02 0.03 0.03 0.03 0.03 0.02 0.02 0.02 0.02 0.03 0.03 0.04 0.04 0.03 0.02 0.03 0.06 0.07 0.06 0.06 0.05 0.05 0.06 0.07 0.06 0.04 0.03 0.03 0.02 0.04 0.06 0.07 0.06 0.05 0.05 0.04 0.05 0.05 0.06 0.06 0.06 0.06
0.01 0.01 0.02 0.02 0.03 0.03 0.03 0.03 0.04 0.04 0.03 0.03 0.03 0.03 0.04 0.05 0.03 0.04 0.06 0.08 0.08 0.07 0.06 0.06 0.06 0.05 0.05 0.04 0.04 0.03 0.03 0.05 0.06 0.07 0.06 0.07 0.07 0.07 0.08 0.08 0.08 0.09 0.09 0.08
MSLP
1007.36 1008.45 1009.32 1009.94 1010.30 1010.46 1010.47 1010.41 1010.33 1010.27 1010.24 1010.21 1010.17 1010.09 1009.96 1009.77 1009.56 1009.37 1009.22 1009.15 1009.19 1009.33 1009.55 1009.83 1010.14 1010.45 1010.75 1011.04 1011.32 1011.61 1011.92 1012.26 1012.61 1012.98 1013.33 1013.66 1013.93 1014.15 1014.32 1014.46 1014.59 1014.74 1014.91 1015.13
1008.07 1008.98 1009.67 1010.12 1010.37 1010.49 1010.53 1010.58 1010.66 1010.77 1010.90 1011.00 1011.03 1010.96 1010.77 1010.49 1010.16 1009.84 1009.59 1009.44 1009.42 1009.53 1009.74 1010.00 1010.27 1010.53 1010.75 1010.95 1011.13 1011.32 1011.56 1011.86 1012.22 1012.62 1013.03 1013.41 1013.74 1013.99 1014.16 1014.27 1014.34 1014.40 1014.49 1014.63
1008.45 1009.14 1009.63 1009.92 1010.09 1010.21 1010.35 1010.57 1010.87 1011.22 1011.57 1011.84 1011.98 1011.95 1011.73 1011.38 1010.95 1010.51 1010.15 1009.92 1009.85 1009.92 1010.09 1010.32 1010.54 1010.72 1010.85 1010.92 1010.98 1011.06 1011.21 1011.45 1011.79 1012.20 1012.65 1013.09 1013.47 1013.76 1013.95 1014.04 1014.07 1014.06 1014.07 1014.12
1008.49 1008.96 1009.25 1009.42 1009.56 1009.74 1010.04 1010.49 1011.06 1011.69 1012.29 1012.77 1013.04 1013.06 1012.83 1012.41 1011.88 1011.34 1010.88 1010.56 1010.43 1010.45 1010.59 1010.77 1010.93 1011.03 1011.04 1010.98 1010.90 1010.84 1010.87 1011.03 1011.31 1011.71 1012.17 1012.65 1013.08 1013.41 1013.62 1013.71 1013.70 1013.64 1013.59 1013.57
1008.30 1008.56 1008.70 1008.79 1008.95 1009.24 1009.75 1010.46 1011.33 1012.26 1013.11 1013.78 1014.18 1014.25 1014.00 1013.51 1012.89 1012.24 1011.69 1011.30 1011.10 1011.08 1011.18 1011.31 1011.41 1011.42 1011.32 1011.12 1010.89 1010.68 1010.57 1010.61 1010.81 1011.16 1011.60 1012.09 1012.54 1012.90 1013.13 1013.22 1013.20 1013.12 1013.02 1012.95
1008.04 1008.13 1008.15 1008.22 1008.44 1008.89 1009.61 1010.59 1011.74 1012.92 1014.00 1014.83 1015.32 1015.41 1015.14 1014.58 1013.87 1013.13 1012.50 1012.04 1011.80 1011.74 1011.81 1011.91 1011.95 1011.88 1011.68 1011.35 1010.97 1010.60 1010.34 1010.23 1010.32 1010.58 1010.97 1011.43 1011.87 1012.24 1012.48 1012.58 1012.56 1012.46 1012.34 1012.25
1007.85 1007.82 1007.78 1007.87 1008.17 1008.78 1009.71 1010.91 1012.28 1013.66 1014.88 1015.81 1016.33 1016.42 1016.11 1015.49 1014.70 1013.90 1013.21 1012.72 1012.46 1012.39 1012.44 1012.52 1012.52 1012.39 1012.09 1011.66 1011.14 1010.62 1010.20 1009.94 1009.89 1010.03 1010.33 1010.73 1011.14 1011.48 1011.72 1011.83 1011.82 1011.73 1011.61 1011.51
1007.88 1007.77 1007.72 1007.85 1008.25 1008.99 1010.06 1011.41 1012.91 1014.38 1015.65 1016.59 1017.10 1017.14 1016.78 1016.10 1015.28 1014.45 1013.75 1013.26 1013.01 1012.96 1013.03 1013.10 1013.09 1012.92 1012.56 1012.03 1011.40 1010.75 1010.19 1009.78 1009.59 1009.60 1009.79 1010.09 1010.44 1010.75 1010.96 1011.07 1011.07 1010.99 1010.88 1010.79
1008.15 1008.03 1008.00 1008.19 1008.67 1009.48 1010.63 1012.02 1013.52 1014.96 1016.19 1017.05 1017.49 1017.47 1017.05 1016.35 1015.53 1014.72 1014.07 1013.64 1013.44 1013.43 1013.53 1013.63 1013.62 1013.43 1013.04 1012.45 1011.74 1011.00 1010.33 1009.80 1009.47 1009.36 1009.42 1009.62 1009.88 1010.13 1010.32 1010.41 1010.41 1010.35 1010.26 1010.17
1008.65 1008.56 1008.59 1008.83 1009.35 1010.18 1011.30 1012.62 1014.01 1015.32 1016.40 1017.12 1017.44 1017.34 1016.90 1016.21 1015.44 1014.72 1014.16 1013.83 1013.72 1013.78 1013.94 1014.07 1014.08 1013.90 1013.49 1012.89 1012.15 1011.35 1010.61 1010.00 1009.57 1009.35 1009.31 1009.40 1009.57 1009.75 1009.88 1009.95 1009.94 1009.88 1009.80 1009.73
1009.29 1009.28 1009.38 1009.66 1010.18 1010.96 1011.97 1013.12 1014.30 1015.38 1016.24 1016.78 1016.96 1016.79 1016.35 1015.73 1015.07 1014.49 1014.08 1013.87 1013.88 1014.03 1014.24 1014.41 1014.44 1014.27 1013.88 1013.29 1012.56 1011.77 1011.01 1010.37 1009.89 1009.59 1009.46 1009.46 1009.54 1009.64 1009.72 1009.75 1009.72 1009.65 1009.57 1009.49
1009.95 1010.04 1010.22 1010.54 1011.03 1011.70 1012.53 1013.45 1014.36 1015.15 1015.75 1016.09 1016.14 1015.94 1015.53 1015.02 1014.52 1014.12 1013.88 1013.83 1013.95 1014.18 1014.44 1014.63 1014.68 1014.52 1014.16 1013.61 1012.92 1012.18 1011.46 1010.84 1010.35 1010.02 1009.84 1009.77 1009.76 1009.79 1009.80 1009.79 1009.73 1009.65 1009.55 1009.46
1010.55 1010.76 1011.01 1011.34 1011.78 1012.32 1012.93 1013.57 1014.18 1014.68 1015.03 1015.17 1015.13 1014.91 1014.58 1014.22 1013.91 1013.71 1013.65 1013.75 1013.97 1014.26 1014.54 1014.73 1014.77 1014.63 1014.30 1013.81 1013.20 1012.54 1011.91 1011.35 1010.90 1010.57 1010.36 1010.24 1010.17 1010.12 1010.07 1010.00 1009.91 1009.80 1009.68 1009.58
1011.05 1011.36 1011.68 1012.01 1012.38 1012.76 1013.15 1013.52 1013.84 1014.06 1014.17 1014.17 1014.06 1013.87 1013.65 1013.46 1013.35 1013.35 1013.46 1013.68 1013.98 1014.29 1014.55 1014.72 1014.73 1014.59 1014.29 1013.86 1013.34 1012.80 1012.27 1011.81 1011.43 1011.14 1010.92 1010.77 1010.64 1010.53 1010.41 1010.28 1010.15 1010.01 1009.88 1009.76
1011.46 1011.85 1012.21 1012.52 1012.80 1013.03 1013.21 1013.33 1013.39 1013.38 1013.31 1013.20 1013.07 1012.94 1012.85 1012.84 1012.92 1013.09 1013.34 1013.65 1013.98 1014.27 1014.49 1014.60 1014.57 1014.40 1014.13 1013.76 1013.35 1012.92 1012.52 1012.17 1011.87 1011.63 1011.43 1011.25 1011.08 1010.90 1010.72 1010.54 1010.36 1010.19 1010.04 1009.92
1011.82 1012.26 1012.62 1012.90 1013.08 1013.16 1013.15 1013.06 1012.91 1012.72 1012.53 1012.36 1012.24 1012.19 1012.24 1012.39 1012.63 1012.94 1013.30 1013.65 1013.97 1014.22 1014.36 1014.39 1014.30 1014.11 1013.85 1013.54 1013.22 1012.92 1012.64 1012.40 1012.19 1011.99 1011.80 1011.60 1011.38 1011.15 1010.91 1010.67 1010.45 1010.26 1010.10 1009.97
1012.22 1012.64 1012.96 1013.17 1013.24 1013.19 1013.01 1012.76 1012.45 1012.14 1011.87 1011.68 1011.60 1011.64 1011.82 1012.10 1012.47 1012.88 1013.29 1013.66 1013.94 1014.12 1014.17 1014.11 1013.96 1013.74 1013.49 1013.24 1013.01 1012.81 1012.64 1012.49 1012.35 1012.19 1012.01 1011.78 1011.52 1011.23 1010.93 1010.65 1010.40 1010.19 1010.02 1009.89
1012.69 1013.03 1013.27 1013.37 1013.32 1013.13 1012.82 1012.44 1012.03 1011.64 1011.34 1011.17 1011.14 1011.27 1011.54 1011.93 1012.38 1012.85 1013.28 1013.62 1013.85 1013.95 1013.92 1013.78 1013.58 1013.34 1013.11 1012.91 1012.75 1012.63 1012.55 1012.48 1012.38 1012.24 1012.05 1011.80 1011.49 1011.15 1010.81 1010.48 1010.20 1009.98 1009.82 1009.69
1013.22 1013.44 1013.54 1013.50 1013.32 1013.00 1012.58 1012.10 1011.62 1011.21 1010.91 1010.76 1010.78 1010.98 1011.33 1011.79 1012.29 1012.77 1013.19 1013.50 1013.67 1013.70 1013.60 1013.42 1013.18 1012.94 1012.73 1012.58 1012.48 1012.43 1012.40 1012.38 1012.31 1012.18 1011.97 1011.69 1011.35 1010.96 1010.58 1010.23 1009.93 1009.70 1009.54 1009.42
1013.74 1013.81 1013.75 1013.56 1013.23 1012.79 1012.28 1011.73 1011.22 1010.80 1010.51 1010.40 1010.48 1010.73 1011.12 1011.61 1012.12 1012.60 1013.00 1013.26 1013.39 1013.37 1013.24 1013.03 1012.79 1012.56 1012.38 1012.27 1012.22 1012.21 1012.23 1012.22 1012.17 1012.03 1011.81 1011.50 1011.13 1010.73 1010.32 1009.96 1009.65 1009.42 1009.26 1009.15
1014.18 1014.06 1013.83 1013.48 1013.03 1012.48 1011.90 1011.31 1010.79 1010.38 1010.13 1010.05 1010.17 1010.45 1010.86 1011.36 1011.86 1012.32 1012.68 1012.91 1013.00 1012.96 1012.82 1012.61 1012.39 1012.20 1012.05 1011.98 1011.96 1011.99 1012.02 1012.03 1011.97 1011.83 1011.60 1011.28 1010.90 1010.49 1010.09 1009.72 1009.42 1009.19 1009.03 1008.92
1014.42 1014.13 1013.74 1013.25 1012.68 1012.06 1011.43 1010.84 1010.33 1009.95 1009.73 1009.70 1009.84 1010.14 1010.55 1011.03 1011.50 1011.93 1012.25 1012.46 1012.53 1012.49 1012.36 1012.18 1012.00 1011.84 1011.74 1011.69 1011.70 1011.74 1011.78 1011.78 1011.72 1011.58 1011.34 1011.04 1010.67 1010.28 1009.90 1009.56 1009.27 1009.05 1008.89 1008.78
1014.38 1013.95 1013.43 1012.83 1012.19 1011.52 1010.88 1010.31 1009.84 1009.51 1009.34 1009.35 1009.51 1009.81 1010.21 1010.65 1011.09 1011.47 1011.77 1011.96 1012.03 1012.00 1011.89 1011.75 1011.61 1011.49 1011.42 1011.40 1011.41 1011.45 1011.48 1011.48 1011.41 1011.27 1011.06 1010.78 1010.45 1010.10 1009.76 1009.46 1009.20 1009.00 1008.85 1008.73
1014.04 1013.51 1012.91 1012.25 1011.57 1010.91 1010.29 1009.77 1009.36 1009.10 1008.98 1009.03 1009.21 1009.50 1009.88 1010.28 1010.68 1011.02 1011.28 1011.45 1011.52 1011.51 1011.44 1011.33 1011.23 1011.14 1011.08 1011.07 1011.08 1011.11 1011.13 1011.11 1011.04 1010.92 1010.73 1010.49 1010.22 1009.94 1009.66 1009.41 1009.19 1009.01 1008.87 1008.75
1013.43 1012.84 1012.20 1011.53 1010.87 1010.24 1009.70 1009.25 1008.93 1008.74 1008.69 1008.77 1008.97 1009.26 1009.60 1009.97 1010.32 1010.62 1010.86 1011.01 1011.08 1011.08 1011.04 1010.96 1010.87 1010.80 1010.75 1010.72 1010.71 1010.71 1010.71 1010.68 1010.61 1010.51 1010.36 1010.18 1009.98 1009.77 1009.57 1009.37 1009.21 1009.06 1008.92 1008.80
1012.62 1012.02 1011.38 1010.74 1010.14 1009.59 1009.14 1008.79 1008.57 1008.47 1008.49 1008.62 1008.83 1009.11 1009.44 1009.76 1010.07 1010.33 1010.54 1010.67 1010.74 1010.75 1010.71 1010.64 1010.56 1010.48 1010.41 1010.36 1010.32 1010.29 1010.25 1010.21 1010.15 1010.07 1009.97 1009.85 1009.72 1009.59 1009.46 1009.33 1009.21 1009.09 1008.96 1008.84
Thickness
5810 5796 5787 5796 5801 5803 5799 5792 5788 5798 5814 5806 5799 5801 5807 5812 5811 5809 5807 5807 5806 5807 5809 5808 5806 5803 5799 5796 5792 5789 5786 5784 5782 5778 5774 5771 5769 5770 5770 5770 5769 5767 5765 5763
5791 5788 5803 5809 5808 5802 5796 5789 5788 5798 5811 5805 5796 5799 5808 5811 5812 5813 5811 5809 5809 5807 5807 5807 5806 5804 5801 5797 5794 5790 5788 5787 5785 5782 5779 5775 5773 5771 5771 5771 5770 5768 5767 5765
5787 5797 5811 5805 5800 5794 5791 5787 5790 5791 5799 5802 5795 5788 5797 5807 5812 5813 5813 5813 5812 5810 5807 5807 5806 5804 5803 5799 5797 5795 5791 5789 5787 5785 5781 5777 5774 5772 5770 5769 5769 5769 5768 5766
5789 5802 5804 5799 5795 5794 5783 5800 5798 5794 5781 5771 5782 5760 5785 5796 5800 5807 5810 5812 5813 5814 5812 5809 5808 5806 5805 5804 5801 5797 5793 5791 5788 5786 5781 5777 5773 5770 5770 5770 5770 5769 5769 5767
5786 5799 5797 5792 5798 5798 5795 5805 5798 5790 5777 5765 5770 5759 5771 5789 5790 5800 5810 5814 5816 5816 5815 5813 5812 5810 5809 5807 5803 5799 5795 5791 5788 5786 5783 5779 5776 5774 5772 5771 5769 5768 5768 5767
5791 5803 5804 5802 5809 5807 5804 5792 5780 5767 5758 5746 5761 5755 5760 5778 5791 5802 5811 5815 5817 5817 5817 5815 5814 5811 5809 5806 5803 5800 5795 5791 5788 5785 5782 5780 5777 5774 5771 5769 5767 5766 5766 5766
5777 5790 5802 5807 5797 5798 5791 5766 5742 5740 5729 5735 5759 5754 5761 5793 5803 5807 5811 5815 5818 5818 5816 5813 5810 5809 5806 5804 5802 5799 5795 5791 5788 5785 5782 5781 5778 5776 5772 5770 5768 5766 5764 5764
5755 5760 5788 5798 5793 5783 5779 5768 5739 5728 5724 5734 5750 5747 5772 5800 5807 5811 5814 5815 5817 5816 5816 5814 5812 5808 5806 5803 5801 5797 5794 5791 5788 5785 5783 5781 5779 5776 5773 5771 5769 5767 5766 5765
5749 5756 5789 5797 5801 5792 5772 5762 5766 5740 5732 5727 5735 5752 5775 5797 5800 5804 5808 5811 5812 5812 5813 5812 5810 5807 5804 5802 5800 5797 5793 5790 5788 5785 5782 5779 5777 5775 5773 5771 5770 5769 5768 5766
5759 5752 5772 5787 5793 5788 5781 5765 5745 5731 5716 5714 5731 5743 5755 5778 5787 5794 5798 5802 5806 5809 5808 5808 5807 5806 5803 5802 5799 5797 5793 5789 5787 5784 5782 5780 5776 5774 5772 5770 5768 5767 5766 5764
5756 5746 5755 5766 5764 5763 5763 5755 5741 5726 5726 5714 5714 5736 5776 5778 5784 5787 5792 5797 5800 5802 5803 5803 5803 5802 5801 5799 5797 5794 5791 5788 5785 5783 5780 5777 5774 5773 5770 5768 5766 5765 5764 5762
5743 5732 5729 5747 5765 5770 5765 5754 5740 5729 5721 5717 5716 5737 5784 5783 5785 5786 5787 5791 5793 5795 5796 5797 5798 5797 5796 5794 5793 5791 5789 5786 5784 5781 5778 5774 5772 5769 5767 5766 5764 5763 5761 5759
5735 5722 5714 5726 5739 5750 5749 5749 5741 5731 5718 5707 5711 5736 5775 5775 5778 5780 5781 5783 5786 5788 5789 5791 5791 5790 5790 5789 5788 5787 5786 5784 5782 5778 5774 5770 5767 5765 5763 5762 5761 5759 5757 5755
5732 5711 5709 5709 5718 5730 5735 5740 5738 5728 5713 5709 5719 5737 5756 5762 5765 5769 5772 5775 5777 5779 5781 5782 5782 5783 5784 5784 5783 5782 5780 5779 5778 5774 5771 5767 5764 5762 5760 5758 5757 5755 5753 5751
5718 5704 5709 5714 5724 5727 5729 5734 5734 5729 5725 5721 5730 5734 5746 5753 5758 5762 5765 5767 5768 5770 5772 5773 5774 5775 5777 5777 5776 5775 5774 5774 5773 5770 5766 5764 5761 5758 5756 5754 5752 5751 5748 5747
5700 5697 5702 5705 5717 5718 5721 5729 5731 5731 5730 5728 5730 5732 5745 5749 5752 5753 5755 5757 5759 5761 5764 5766 5767 5768 5768 5769 5769 5768 5767 5767 5766 5764 5761 5759 5756 5753 5751 5749 5746 5744 5742 5740
5684 5685 5683 5683 5697 5708 5703 5718 5723 5723 5725 5725 5721 5729 5737 5738 5741 5744 5747 5749 5751 5754 5757 5759 5759 5759 5760 5761 5762 5761 5761 5759 5757 5756 5754 5752 5750 5747 5745 5743 5739 5737 5734 5733
5675 5671 5665 5667 5681 5679 5701 5721 5723 5718 5718 5722 5724 5727 5731 5734 5737 5740 5742 5742 5743 5746 5749 5750 5751 5751 5752 5753 5753 5753 5752 5750 5749 5747 5745 5743 5742 5739 5737 5735 5732 5730 5727 5726
5670 5665 5655 5653 5659 5673 5696 5709 5710 5707 5706 5715 5715 5719 5722 5725 5726 5727 5733 5734 5735 5738 5740 5742 5744 5744 5743 5744 5744 5743 5741 5740 5738 5736 5735 5735 5733 5730 5728 5727 5724 5722 5720 5718
5659 5657 5650 5646 5653 5658 5683 5703 5710 5704 5693 5707 5708 5708 5709 5711 5703 5711 5722 5723 5726 5729 5730 5731 5732 5733 5733 5733 5733 5731 5730 5729 5727 5727 5726 5725 5724 5721 5720 5718 5716 5714 5712 5710
5645 5642 5642 5640 5644 5658 5682 5694 5699 5679 5684 5698 5700 5700 5700 5698 5700 5707 5711 5712 5715 5717 5718 5720 5720 5720 5721 5722 5722 5720 5719 5718 5719 5719 5717 5715 5714 5712 5712 5709 5707 5705 5704 5701
5636 5634 5633 5631 5634 5649 5678 5681 5676 5677 5686 5689 5690 5691 5691 5692 5695 5698 5700 5701 5704 5705 5706 5707 5708 5708 5710 5711 5711 5709 5708 5709 5710 5709 5706 5704 5704 5704 5703 5700 5698 5696 5694 5691
5629 5633 5632 5634 5642 5657 5664 5669 5674 5675 5676 5678 5680 5682 5683 5683 5685 5687 5688 5689 5692 5694 5695 5695 5695 5697 5698 5698 5699 5698 5698 5698 5697 5695 5694 5693 5693 5693 5692 5691 5688 5686 5683 5680
5626 5628 5627 5631 5642 5651 5657 5662 5666 5668 5669 5671 5672 5673 5674 5674 5675 5676 5676 5677 5679 5681 5683 5683 5683 5684 5685 5686 5687 5688 5688 5688 5686 5684 5682 5681 5680 5680 5680 5679 5678 5675 5672 5670
5618 5621 5620 5624 5634 5642 5649 5652 5656 5659 5662 5663 5663 5664 5664 5664 5665 5665 5665 5666 5667 5670 5671 5672 5671 5672 5674 5675 5675 5676 5676 5676 5674 5673 5671 5670 5669 5668 5667 5666 5664 5663 5662 5660
5610 5613 5613 5619 5628 5628 5635 5642 5646 5648 5650 5652 5652 5652 5653 5654 5654 5654 5655 5656 5657 5658 5659 5661 5662 5662 5663 5664 5664 5666 5665 5664 5663 5661 5659 5658 5658 5656 5655 5653 5651 5650 5649 5647